Location: Brunembert
(50.7122°N, 1.8935°E)
Time: 18:57:08
(UTC+00:00)

Tiangong - Visible Passes

Search period start: 26 September 2021 00:00
Search period end: 06 October 2021 00:00
Orbit: 382 x 385 km, 41.5° (Epoch: 26 September)

Date Brightness Start Highest point End Pass type
(mag) Time Alt. Az. Time Alt. Az. Time Alt. Az.
28 Sep 3.7 05:12:43 10° SSW 05:14:21 13° SSE 05:15:58 10° SE visible
29 Sep 3.8 04:13:51 10° S 04:14:41 11° SSE 04:15:31 10° SSE visible
30 Sep 3.4 04:49:06 10° SSW 04:51:01 15° S 04:52:57 10° SE visible
01 Oct 3.6 03:51:45 13° SSE 03:51:45 13° SSE 03:52:56 10° SE visible
02 Oct 3.2 04:26:53 15° SSW 04:27:40 16° S 04:29:42 10° SE visible
03 Oct 4.1 03:29:50 10° SE 03:29:50 10° SE 03:29:52 10° SE visible
03 Oct 3.4 05:02:21 10° SW 05:04:02 14° S 05:05:41 10° SSE visible
04 Oct 3.4 04:05:00 14° S 04:05:00 14° S 04:06:14 10° SSE visible
05 Oct 3.5 04:40:13 11° SSW 04:40:35 11° SSW 04:41:34 10° S visible
